Location: Jaite
(41.2884°N, 81.5737°W)
Time: 18:52:22
(UTC+00:00)

ATLAS 2AS CENTAUR R/B - Pass Details

Date: 18 January 2020
Orbit: 929 x 1283 km, 63.7° (Epoch: 08 February)

Event Time Altitude Azimuth Distance (km) Brightness Sun altitude
Rises 11:25:05 0° 204° (SSW) 4,152 5.7 -15.5°
Reaches altitude 10° 11:27:49 10° 203° (SSW) 3,220 5.1 -15.0°
Maximum altitude 11:35:39 73° 120° (ESE) 1,331 3.4 -13.6°
Drops below altitude 10° 11:43:39 10° 38° (NE) 3,276 5.5 -12.1°
Sets 11:46:27 0° 37° (NE) 4,228 6.1 -11.6°
